Starlink 3989

operational
NORAD ID: 52630 Int'l Des: 2022-052 Owner: SPXS Country: US Constellation: starlink
LEOCIRCULAR

关于 Starlink 3989

正在加载描述...

实时位置

正在加载3D地球...

即将过境

高度历史

Altitude vs Time

uPlot chart will show altitude changes over time

两行轨道根数

1 52630U 22052AJ 26062.03272119 .00000014 00000-0 18986-4 0 9999
2 52630 53.2181 299.0070 0001442 87.9121 272.2036 15.08840222209986
Epoch: Mar 3, 2026 • Age: 16 hours

当前状态

高度 541.0 km
速度 7.60 km/s
星下点 31.24°N, 52.33°E
发射日期 May 14, 2022
运行时间 3.8 years
类型 internet

技术详情

分类 Payload
质量 297.00 kg
干质量 275.00 kg
总质量 297.00 kg
长度 0.20 m
直径 2.80 m
跨度 9.00 m
形状 Box + pan
制造商 SPXS
平台类型 Starlink
阶段状态 In Orbit
所有者/国家 SPXS/US

大型星座

Loading constellations...